Weather in Fairbanks

United States     64°49′43″N   147°40′09″W
temp.,
°C
wind,
m/s
gust,
m/s
humid.,
%
clouds,
%
prec.,
mm/h
press.,
hPa
HPBL,
m
20 may, fri
fri2001:00+8wsw11667 0.0 102921
04:00+6ese11795 0.0 103010
07:00+8ene117032 0.0 1030107
10:00+14ese12465 0.0 1028527
13:00+19se12335 0.0 10271176
16:00+21ese11275 0.0 10241568
19:00+21ne11265 0.0 10221719
22:00+16nne22431 0.0 102112
21 may, sat
sat2101:00+11e11575 0.0 102110
04:00+8e11685 0.0 102110
07:00+11e116240 0.0 1020104
10:00+16ene124460 0.0 1019531
13:00+20ese2333100 0.0 10171452
16:00+22se2428100 0.0 10142299
19:00+22ese233056 0.0 10132182
22:00+16ne385289 0.0 1012247
22 may, sun
sun2201:00+11nne255984 0.0 101283
04:00+8nne2464100 0.0 101268
07:00+10ne245549 0.0 1012168
10:00+15ne223860 0.0 1011781
13:00+19n123162 0.0 10101528
16:00+21wnw222919 0.0 10092310
19:00+17nne3639100 0.0 1009605
22:00+14ne4103859 0.0 1010621
23 may, mon
mon2301:00+10nne410458 0.0 1012418
04:00+8nne4104961 0.0 1013487
07:00+7nne48530 0.0 1014605
10:00+10nne45360 0.0 10151186
13:00+14ne34280 0.0 10141741
16:00+15ne45260 0.0 10131969
19:00+15ene45280 0.0 10121962
22:00+11ne37440 0.0 1012254
24 may, tue
tue2401:00+5n22602 0.0 101230
04:00+3ne22705 0.0 101320
07:00+7ene12596 0.0 1012158
10:00+12e114737 0.0 1011711
13:00+16wsw12326 0.0 10101646
16:00+18wsw122453 0.0 10082329
19:00+17w222359 0.0 10072408
22:00+12w254249 0.0 100697